Location: Unspecified
(17.8760°N, 0.0000°E)
Time: 20:26:02
(UTC+00:00)

ISS - Visible Passes

Search period start: 18 April 2019 00:00
Search period end: 28 April 2019 00:00
Orbit: 408 x 410 km, 51.6° (Epoch: 18 April)

Date Brightness Start Highest point End Pass type
(mag) Time Alt. Az. Time Alt. Az. Time Alt. Az.
22 Apr -2.4 05:09:50 10° SSW 05:12:55 37° SE 05:15:59 10° ENE visible
23 Apr -1.1 04:20:09 10° SSE 04:22:14 16° SE 04:24:19 10° E visible
24 Apr -3.3 05:04:41 10° SW 05:07:49 45° NW 05:10:59 10° NNE visible
25 Apr -3.6 04:16:32 53° S 04:17:03 65° SE 04:20:18 10° NE visible
26 Apr -0.7 03:28:15 15° ENE 03:28:15 15° ENE 03:29:04 10° ENE visible
26 Apr -1.6 05:01:09 10° WNW 05:02:49 13° NW 05:04:29 10° NNW visible
27 Apr -2.3 04:12:37 26° NNW 04:12:37 26° NNW 04:14:49 10° NNE visible
